星链-4486 (STARLINK-4486 )

导读

STARLINK-4486是美国太空探索技术公司(SpaceX)星链(Starlink)项目的一颗卫星,于2022年8月19日发射升空,属于星链星座组网卫星,该卫星主要用于为全球用户提供低延迟、高速率的宽带互联网服务,是星链全球互联网星座建设中的组成单元,支撑星链系统的全球覆盖能力构建。

Basic Information
目录编号:
53540
目录名称:
STARLINK-4486
国际标识:
2022-101P
轨道中心:
EARTH
卫星名称:
星链-4486
卫星全名:
星链-4486 (STARLINK-4486 )
卫星状态:
在轨 (已飞行1396 天)
发射日期:
2022-08-19 UTC
国别 :
美国 (US)
星等 :
--
Orbit Information
数据来源 国际轨道数据 AOE轨道数据
星历时间 2026-06-15T05:52:33+0800
7小时前
查看轨道信息
2026-06-15T07:00:00+0800
6小时前
查看轨道信息
半长轴 6917.895km 6917.888km
偏心率 0.0001299 0.0001232
轨道倾角 53.161° 53.160°
近地点辐角 88.560° 82.016°
升交点赤经 347.947° 347.738°
平近点角 271.554° 172.680°
近地点 538.859km 538.898km
远地点 540.657km 540.604km
周期 95.438分钟 95.438分钟
每日圈数 15.088354 15.088378
Detailed Information
固有亮度:
5
最大亮度:
2.5
卫星平台:
Starlink v1.5
覆盖范围:
全球
运营商:
太空探索技术公司
运营商所在国:
美国
制造商(研发单位):
太空探索技术公司
制造商所在国:
美国
使用方式:
暂无
Satellite Introduction
星链(Starlink)计划是由太空探索技术公司(SpaceX)提出的一个巨型低轨卫星互联网星座项目,计划在2019年至2024年间在太空搭建由约1.2万颗卫星组成的“星链”网络,其中1584颗将部署在地球上空550千米处的近地轨道,并从2020年开始工作。该卫星仍在工作。
2D Orbit Map
3D Orbit Map
Orbit Altitude Analysis Chart
Orbit Inclination Analysis Chart
Orbit Comprehensive Analysis Chart
View Comprehensive Chart